Location: Newark
(48.9886°N, 1.2358°E)
Time: 06:33:19
(UTC+00:00)

Explorer 7 - Visible Passes

Search period start: 13 November 2019 00:00
Search period end: 23 November 2019 00:00
Orbit: 485 x 680 km, 50.3° (Epoch: 12 November)

Date Brightness Start Highest point End Pass type
(mag) Time Alt. Az. Time Alt. Az. Time Alt. Az.
13 Nov 9.2 03:43:46 21° ENE 03:43:46 21° ENE 03:45:11 10° ENE visible
13 Nov 6.7 05:20:06 34° WNW 05:21:46 72° N 05:25:40 10° E visible
14 Nov 9.1 03:48:37 23° ENE 03:48:37 23° ENE 03:50:10 10° ENE visible
14 Nov 6.7 05:24:57 31° WNW 05:26:47 77° N 05:30:42 10° E visible
15 Nov 9.0 03:53:27 25° ENE 03:53:27 25° ENE 03:55:10 10° E visible
15 Nov 6.7 05:29:47 29° WNW 05:31:47 87° N 05:35:42 10° ESE visible
16 Nov 8.8 03:58:17 27° ENE 03:58:17 27° ENE 04:00:10 10° E visible
16 Nov 6.7 05:34:37 27° WNW 05:36:46 78° SSW 05:40:39 10° ESE visible
17 Nov 8.7 04:03:09 29° E 04:03:09 29° E 04:05:11 10° E visible
17 Nov 6.9 05:39:29 25° W 05:41:42 60° SSW 05:45:32 10° SE visible
18 Nov 8.5 04:08:02 31° E 04:08:02 31° E 04:10:12 10° E visible
18 Nov 7.3 05:44:22 22° W 05:46:34 43° SSW 05:50:17 10° SE visible
19 Nov 8.4 04:12:58 32° ESE 04:12:58 32° ESE 04:15:11 10° ESE visible
19 Nov 7.8 05:49:17 19° W 05:51:23 31° SW 05:54:51 10° SSE visible
20 Nov 8.4 04:17:56 32° ESE 04:17:56 32° ESE 04:20:07 10° ESE visible
20 Nov 8.3 05:54:15 16° WSW 05:56:08 21° SW 05:59:09 10° S visible
21 Nov 8.5 04:22:57 28° SE 04:22:57 28° SE 04:24:57 10° SE visible
21 Nov 8.8 05:59:17 12° WSW 06:00:49 14° SW 06:02:59 10° SSW visible
22 Nov 8.7 04:28:02 22° SSE 04:28:02 22° SSE 04:29:39 10° SE visible
